Tracking 28790 objects as of 19-Apr-2024
HD Live streaming from Space Station
objects crossing your sky now

SJ 16-02 DEB

Track SJ 16-02 DEB now!
10-day predictions


NORAD ID: 43428
Int'l Code: 2016-043C
Perigee: 602.9 km
Apogee: 981.4 km
Inclination: 75.0 °
Period: 100.6 minutes
Semi major axis: 7163 km
RCS: Unknown
Launch date: June 29, 2016
Source: People's Republic of China (PRC)
Launch site: Jiuquan Satellite Launch Center, China (JSC)

Note: This is SATELLITE DEBRIS
Your satellite tracking list
Your tracking list is empty




NASA's NSSDC Master Catalog

Two Line Element Set (TLE):
1 43428U 16043C   24109.59018128  .00013648  00000-0  34546-2 0  9991
2 43428  74.9657  76.1975 0264212  45.6594 316.5884 14.32002395405605
Source of the keplerian elements: AFSPC